TimeEDT,TemperatureF,Dew PointF,Humidity,Sea Level PressureIn,VisibilityMPH,Wind Direction,Wind SpeedMPH,Gust SpeedMPH,PrecipitationIn,Events,Conditions,WindDirDegrees,DateUTC
12:53 AM,60.1,46.0,60,30.17,10.0,North,9.2,17.3,N/A,,Clear,350,2013-03-14 04:53:00
1:53 AM,57.9,45.0,62,30.17,10.0,North,5.8,-,N/A,,Clear,10,2013-03-14 05:53:00
2:53 AM,55.9,44.1,64,30.16,10.0,North,3.5,-,N/A,,Clear,360,2013-03-14 06:53:00
3:53 AM,55.9,45.0,67,30.15,10.0,North,4.6,-,N/A,,Clear,360,2013-03-14 07:53:00
4:53 AM,55.0,46.0,72,30.14,10.0,North,6.9,-,N/A,,Clear,350,2013-03-14 08:53:00
5:53 AM,55.9,46.9,72,30.16,10.0,North,10.4,19.6,N/A,,Clear,350,2013-03-14 09:53:00
6:53 AM,55.9,45.0,67,30.18,10.0,North,8.1,-,N/A,,Clear,360,2013-03-14 10:53:00
7:53 AM,55.0,36.0,49,30.20,9.0,North,11.5,20.7,N/A,,Clear,360,2013-03-14 11:53:00
8:53 AM,55.9,35.1,45,30.22,10.0,North,15.0,21.9,N/A,,Clear,10,2013-03-14 12:53:00
9:53 AM,57.9,30.9,36,30.24,10.0,NNE,15.0,21.9,N/A,,Clear,20,2013-03-14 13:53:00
10:53 AM,62.1,30.0,30,30.23,10.0,NNE,11.5,21.9,N/A,,Clear,20,2013-03-14 14:53:00
11:53 AM,64.0,28.9,27,30.24,10.0,North,10.4,19.6,N/A,,Clear,360,2013-03-14 15:53:00
12:53 PM,66.0,28.0,24,30.23,10.0,NNW,10.4,-,N/A,,Clear,340,2013-03-14 16:53:00
1:53 PM,69.1,28.0,22,30.20,10.0,North,11.5,-,N/A,,Clear,360,2013-03-14 17:53:00
2:53 PM,71.1,26.1,19,30.16,10.0,North,9.2,18.4,N/A,,Clear,360,2013-03-14 18:53:00
3:53 PM,70.0,35.1,28,30.15,10.0,WNW,12.7,-,N/A,,Clear,300,2013-03-14 19:53:00
4:53 PM,68.0,39.9,36,30.14,10.0,NW,16.1,23.0,N/A,,Clear,310,2013-03-14 20:53:00
5:53 PM,64.9,46.0,50,30.16,10.0,NW,13.8,21.9,N/A,,Clear,310,2013-03-14 21:53:00
6:53 PM,64.0,46.0,52,30.16,10.0,NW,8.1,-,N/A,,Clear,310,2013-03-14 22:53:00
7:53 PM,62.1,48.9,62,30.17,10.0,NNW,4.6,-,N/A,,Clear,330,2013-03-14 23:53:00
8:53 PM,61.0,50.0,67,30.18,10.0,Calm,Calm,-,N/A,,Clear,0,2013-03-15 00:53:00
9:53 PM,57.9,50.0,75,30.20,10.0,ENE,3.5,-,N/A,,Clear,60,2013-03-15 01:53:00
10:53 PM,57.0,48.0,72,30.22,10.0,NNE,4.6,-,N/A,,Clear,30,2013-03-15 02:53:00
11:53 PM,54.0,43.0,66,30.23,10.0,NE,6.9,-,N/A,,Clear,50,2013-03-15 03:53:00